Albert Lea, MN

7:29 PM CDT on September 30, 2016 (GMT -0500)
Albert Lea Municipal

Weather History for KAEL - November, 2012

Change the Weather History Date:

Wednesday, November 14, 2012

  Actual Average Record
Temperature  
Mean Temperature 42 °F -  
Max Temperature 51 °F 41 °F 62 °F (2001)
Min Temperature 33 °F 26 °F 5 °F (2014)
Degree Days  
Heating Degree Days 23    
Moisture  
Dew Point 30 °F    
Average Humidity 68    
Maximum Humidity 87    
Minimum Humidity 44    
Precipitation  
Precipitation 0.00 in - - ()
Sea Level Pressure  
Sea Level Pressure 30.22 in    
Wind  
Wind Speed 6 mph (SSW)    
Max Wind Speed 12 mph    
Max Gust Speed 17 mph    
Visibility 10 miles    
Events      
Averages and records for this station are not official NWS values.
T = Trace of Precipitation, MM = Missing Value Source: NWS Daily Summary

Daily Weather History Graph

Daily Weather History Graph

Search for Another Location

Airport or City:

Trip Planner

Search our weather history database for the weather conditions in past years. The results will help you decide how hot, cold, wet, or windy it might be!

Date:

Astronomy

Nov. 14, 2012 Rise Set
Actual Time 7:07 AM CST 4:48 PM CST
Civil Twilight 6:36 AM CST 5:19 PM CST
Nautical Twilight 6:01 AM CST 5:54 PM CST
Astronomical Twilight 5:27 AM CST 6:28 PM CST
Moon 7:58 AM CST (11/14) 5:35 PM CST (11/14)
Length of Visible Light 10h 43m
Length of Day
9h 41m
New Moon, 1% of the Moon is Illuminated
Nov 14
New Moon
Nov 20
First Quarter
Nov 28
Full
Dec 6
Last Quarter
Dec 13
New

Hourly Weather History & Observations

Time (CST) Temp. Windchill Dew Point Humidity Pressure Visibility Wind Dir Wind Speed Gust Speed Precip Events Conditions
12:11 AM 33.8 °F 25.8 °F 26.6 °F 75% 30.26 in 10.0 mi SSE 10.4 mph - N/A   Scattered Clouds
12:31 AM 33.8 °F 26.4 °F 28.4 °F 81% 30.26 in 10.0 mi South 9.2 mph - N/A   Scattered Clouds
12:51 AM 33.8 °F 28.6 °F 28.4 °F 81% 30.26 in 10.0 mi South 5.8 mph - N/A   Scattered Clouds
1:11 AM 33.8 °F 27.7 °F 28.4 °F 81% 30.25 in 10.0 mi South 6.9 mph - N/A   Clear
1:31 AM 33.8 °F 27.0 °F 28.4 °F 81% 30.25 in 10.0 mi South 8.1 mph - N/A   Clear
1:51 AM 33.8 °F 27.0 °F 28.4 °F 81% 30.25 in 10.0 mi South 8.1 mph - N/A   Clear
2:11 AM 33.8 °F 26.4 °F 28.4 °F 81% 30.25 in 10.0 mi South 9.2 mph - N/A   Clear
2:31 AM 35.6 °F 29.2 °F 28.4 °F 75% 30.25 in 10.0 mi South 8.1 mph - N/A   Mostly Cloudy
2:51 AM 35.6 °F 30.7 °F 30.2 °F 81% 30.25 in 10.0 mi South 5.8 mph - N/A   Overcast
3:11 AM 35.6 °F 30.7 °F 30.2 °F 81% 30.25 in 10.0 mi South 5.8 mph - N/A   Mostly Cloudy
3:31 AM 35.6 °F 30.7 °F 30.2 °F 81% 30.25 in 10.0 mi South 5.8 mph - N/A   Mostly Cloudy
3:51 AM 35.6 °F 30.7 °F 30.2 °F 81% 30.24 in 10.0 mi South 5.8 mph - N/A   Mostly Cloudy
4:11 AM 35.6 °F 29.9 °F 30.2 °F 81% 30.24 in 10.0 mi South 6.9 mph - N/A   Scattered Clouds
4:31 AM 35.6 °F 30.7 °F 30.2 °F 81% 30.25 in 10.0 mi South 5.8 mph - N/A   Scattered Clouds
4:52 AM 37.4 °F 32.8 °F 30.2 °F 75% 30.25 in 10.0 mi South 5.8 mph - N/A   Scattered Clouds
5:11 AM 35.6 °F 31.7 °F 30.2 °F 81% 30.25 in 10.0 mi SSW 4.6 mph - N/A   Scattered Clouds
5:31 AM 35.6 °F 31.7 °F 30.2 °F 81% 30.25 in 10.0 mi South 4.6 mph - N/A   Scattered Clouds
5:51 AM 35.6 °F 30.7 °F 30.2 °F 81% 30.24 in 10.0 mi South 5.8 mph - N/A   Clear
6:11 AM 35.6 °F 30.7 °F 30.2 °F 81% 30.24 in 10.0 mi SSW 5.8 mph - N/A   Clear
6:32 AM 35.6 °F 32.8 °F 30.2 °F 81% 30.25 in 10.0 mi South 3.5 mph - N/A   Clear
6:51 AM 33.8 °F - 30.2 °F 87% 30.25 in 10.0 mi Calm Calm - N/A   Clear
7:11 AM 35.6 °F - 30.2 °F 81% 30.26 in 10.0 mi Calm Calm - N/A   Clear
7:32 AM 35.6 °F - 30.2 °F 81% 30.26 in 10.0 mi Calm Calm - N/A   Clear
7:51 AM 35.6 °F 31.7 °F 30.2 °F 81% 30.26 in 10.0 mi South 4.6 mph - N/A   Clear
8:11 AM 35.6 °F 31.7 °F 30.2 °F 81% 30.26 in 10.0 mi SSW 4.6 mph - N/A   Clear
8:31 AM 37.4 °F 33.8 °F 32.0 °F 81% 30.27 in 10.0 mi SSW 4.6 mph - N/A   Clear
8:51 AM 37.4 °F 32.1 °F 32.0 °F 81% 30.27 in 10.0 mi SW 6.9 mph - N/A   Clear
9:11 AM 37.4 °F 34.9 °F 32.0 °F 81% 30.27 in 10.0 mi SW 3.5 mph - N/A   Clear
9:31 AM 39.2 °F 34.2 °F 32.0 °F 75% 30.27 in 10.0 mi SW 6.9 mph - N/A   Clear
9:51 AM 39.2 °F 33.6 °F 32.0 °F 75% 30.27 in 10.0 mi SW 8.1 mph - N/A   Clear
10:11 AM 39.2 °F 33.6 °F 32.0 °F 75% 30.27 in 10.0 mi SSW 8.1 mph - N/A   Clear
10:32 AM 42.8 °F 39.3 °F 33.8 °F 70% 30.27 in 10.0 mi SSW 5.8 mph - N/A   Clear
10:51 AM 42.8 °F 39.3 °F 32.0 °F 66% 30.26 in 10.0 mi SW 5.8 mph - N/A   Scattered Clouds
11:11 AM 44.6 °F 40.2 °F 32.0 °F 61% 30.25 in 10.0 mi SSW 8.1 mph - N/A   Overcast
11:31 AM 44.6 °F 40.7 °F 32.0 °F 61% 30.25 in 10.0 mi SSW 6.9 mph - N/A   Scattered Clouds
11:51 AM 46.4 °F 43.5 °F 33.8 °F 62% 30.24 in 10.0 mi SW 5.8 mph - N/A   Clear
12:11 PM 48.2 °F - 32.0 °F 54% 30.23 in 10.0 mi SSW 9.2 mph - N/A   Scattered Clouds
12:31 PM 48.2 °F - 32.0 °F 54% 30.23 in 10.0 mi SW 5.8 mph - N/A   Mostly Cloudy
12:51 PM 48.2 °F - 30.2 °F 50% 30.22 in 10.0 mi SSW 10.4 mph - N/A   Overcast
1:11 PM 50.0 °F - 30.2 °F 47% 30.21 in 10.0 mi SSW 8.1 mph 17.3 mph N/A   Overcast
1:31 PM 51.8 °F - 32.0 °F 47% 30.21 in 10.0 mi SSW 9.2 mph - N/A   Scattered Clouds
1:51 PM 51.8 °F - 30.2 °F 44% 30.20 in 10.0 mi SSW 11.5 mph 16.1 mph N/A   Scattered Clouds
2:11 PM 50.0 °F - 30.2 °F 47% 30.20 in 10.0 mi SW 8.1 mph - N/A   Scattered Clouds
2:31 PM 50.0 °F - 30.2 °F 47% 30.20 in 10.0 mi SW 6.9 mph - N/A   Mostly Cloudy
2:51 PM 50.0 °F - 30.2 °F 47% 30.20 in 10.0 mi SSW 8.1 mph - N/A   Overcast
3:11 PM 50.0 °F - 30.2 °F 47% 30.20 in 10.0 mi SSW 6.9 mph - N/A   Mostly Cloudy
3:31 PM 50.0 °F - 30.2 °F 47% 30.20 in 10.0 mi SSW 6.9 mph - N/A   Scattered Clouds
3:51 PM 50.0 °F - 32.0 °F 50% 30.19 in 10.0 mi SW 3.5 mph - N/A   Mostly Cloudy
4:11 PM 48.2 °F - 32.0 °F 54% 30.19 in 10.0 mi Calm Calm - N/A   Scattered Clouds
4:31 PM 48.2 °F - 30.2 °F 50% 30.19 in 10.0 mi Calm Calm - N/A   Clear
4:51 PM 46.4 °F - 30.2 °F 53% 30.18 in 10.0 mi Calm Calm - N/A   Clear
5:11 PM 46.4 °F - 30.2 °F 53% 30.18 in 10.0 mi Calm Calm - N/A   Clear
5:31 PM 42.8 °F - 32.0 °F 66% 30.18 in 10.0 mi Calm Calm - N/A   Clear
5:51 PM 42.8 °F - 30.2 °F 61% 30.17 in 10.0 mi Calm Calm - N/A   Clear
6:11 PM 42.8 °F - 30.2 °F 61% 30.17 in 10.0 mi Calm Calm - N/A   Clear
6:31 PM 41.0 °F - 30.2 °F 65% 30.18 in 10.0 mi Calm Calm - N/A   Clear
6:51 PM 39.2 °F 37.0 °F 30.2 °F 70% 30.18 in 10.0 mi South 3.5 mph - N/A   Clear
7:11 PM 39.2 °F 37.0 °F 30.2 °F 70% 30.18 in 10.0 mi South 3.5 mph - N/A   Clear
7:31 PM 41.0 °F 39.0 °F 30.2 °F 65% 30.18 in 10.0 mi South 3.5 mph - N/A   Clear
7:51 PM 39.2 °F 35.9 °F 30.2 °F 70% 30.18 in 10.0 mi South 4.6 mph - N/A   Clear
8:31 PM 41.0 °F 37.1 °F 28.4 °F 61% 30.18 in 10.0 mi SSW 5.8 mph - N/A   Clear
8:51 PM 41.0 °F 37.1 °F 28.4 °F 61% 30.18 in 10.0 mi SSW 5.8 mph - N/A   Clear
9:11 PM 41.0 °F 38.0 °F 28.4 °F 61% 30.18 in 10.0 mi SSW 4.6 mph - N/A   Clear
9:31 PM 39.2 °F 35.9 °F 28.4 °F 65% 30.18 in 10.0 mi SSW 4.6 mph - N/A   Mostly Cloudy
9:52 PM 41.0 °F 37.1 °F 28.4 °F 61% 30.18 in 10.0 mi South 5.8 mph - N/A   Overcast
10:11 PM 41.0 °F 36.4 °F 28.4 °F 61% 30.17 in 10.0 mi South 6.9 mph - N/A   Overcast
10:31 PM 39.2 °F 35.0 °F 30.2 °F 70% 30.17 in 10.0 mi South 5.8 mph - N/A   Overcast
10:52 PM 39.2 °F 35.0 °F 30.2 °F 70% 30.17 in 10.0 mi South 5.8 mph - N/A   Overcast
11:00 PM 41.0 °F 37.1 °F 30.2 °F 65% 30.17 in 10.0 mi South 5.8 mph - N/A   Overcast
11:34 PM 41.0 °F 36.4 °F 30.2 °F 65% 30.17 in 10.0 mi South 6.9 mph - N/A   Mostly Cloudy
11:51 PM 42.8 °F 38.6 °F 30.2 °F 61% 30.17 in 10.0 mi South 6.9 mph - N/A   Scattered Clouds